Location: Unspecified
(50.7693°N, 0.0000°E)
Time: 00:31:21
(UTC+00:00)

SR - Pass Details

Date: 30 June 2019
Orbit: 580 x 876 km, 66.7° (Epoch: 22 July)

Event Time Altitude Azimuth Distance (km) Brightness Sun altitude
Rises 10:12:34 0° 321° (NW) 3,016 ? 55.0°
Reaches altitude 10° 10:14:48 10° 319° (NW) 2,142 ? 55.3°
Maximum altitude 10:19:39 69° 236° (WSW) 783 ? 55.8°
Drops below altitude 10° 10:24:55 10° 155° (SSE) 2,325 ? 56.4°
Sets 10:27:26 0° 153° (SSE) 3,295 ? 56.7°
